Location: Azul
(36.7830°S, 59.8500°W)
Time: 02:06:17
(UTC-03:00)

HuskySat-1 - Pass Details

Date: 27 October 2021
Orbit: 443 x 456 km, 51.6° (Epoch: 04 December)

Event Time Altitude Azimuth Distance (km) Brightness Sun altitude
Rises 20:59:42 0° 293° (WNW) 2,486 ? -17.6°
Reaches altitude 10° 21:01:56 10° 285° (WNW) 1,617 ? -17.9°
Maximum altitude 21:05:22 38° 215° (SW) 724 ? -18.5°
Drops below altitude 10° 21:08:50 10° 144° (SE) 1,630 ? -19.1°
Enters shadow 21:10:40 - 137° (SE) 2,333 ? -19.4°
